Location: Newark
(50.8547°N, 2.7256°E)
Time: 11:36:01
(UTC+00:00)

Envisat - Pass Details

Date: 31 January 2020
Orbit: 764 x 766 km, 98.1° (Epoch: 23 February)

Event Time Altitude Azimuth Distance (km) Brightness Sun altitude
Rises 18:46:44 0° 206° (SSW) 3,223 6.6 -20.3°
Reaches altitude 10° 18:49:37 10° 223° (SW) 2,302 6.1 -20.8°
Maximum altitude 18:53:20 20° 271° (W) 1,704 5.7 -21.3°
Drops below altitude 10° 18:57:05 10° 318° (NW) 2,314 6.0 -21.9°
Sets 19:00:00 0° 335° (NNW) 3,246 6.6 -22.4°
